User: anonymous   Login
Location: Fort Frances
(48.6170°N, 93.4170°W)
Time: 09:06:02
(UTC-06:00)
Language:

Iridium 53 - Orbit

View from above orbital plane
View from above orbital plane
View from above satellite
View from above satellite

Ground track
Ground track

The orbit data is extracted from the following two-line orbital elements,

1 25173U 98010E   17326.44328122  .00000131  00000-0  39866-4 0  9992
2 25173  86.3945 284.1945 0002208  83.6863 276.4584 14.34217285 34453
Epoch (UTC): 22 November 2017 10:38:19
Eccentricity: 0.0002208
inclination: 86.3945°
perigee height: 776 km
apogee height: 779 km
right ascension of ascending node: 284.1945°
argument of perigee: 83.6863°
revolutions per day: 14.34217285
mean anomaly at epoch: 276.4584°
orbit number at epoch: 3445

The dashed part of the orbit path shows where the satellite is in the earth's shadow,  

DLR